Location: Gouvernes
(48.8601°N, 2.6907°E)
Time: 15:57:01
(UTC+00:00)

Okean-O - Pass Details

Date: 16 October 2021
Orbit: 638 x 640 km, 98.2° (Epoch: 29 November)

Event Time Altitude Azimuth Distance (km) Brightness Sun altitude
Exits shadow 18:07:43 11° 129° (SE) 1,999 4.7 -12.3°
Maximum altitude 18:11:36 33° 66° (ENE) 1,075 3.3 -12.9°
Drops below altitude 10° 18:15:35 10° 3° (N) 2,045 5.2 -13.6°
Sets 18:17:57 0° 354° (N) 2,959 6.2 -14.0°
